date:2026-06-16T02:50:45+00:00
validtle:1
satid:48244
launchyear:2021
epoch:26166.37277359
epochday:166
tleage:1
tleclassification:U
active:1
name:ONEWEB-0200
meananomly:256.9714
meanmotion:13.1450
rightascension:0.0000
declination:0.0000
semimajoraxis:7583.9289436313
altitudeatperigee:1204
altitudeatapogee:1207
inclination:87.8972
eccentricity:0.0001994
argumentofperigree:103.1639
nickname:ONEWEB-0200
idesg:21031AL 
cosparid:2021-031AL
altkm:1209.0266716756
velkms:7.2494190387291
velkmh:26098
onumepoch:24799
onumnow:325993.40
otype:1
otypedesc:Low Earth Orbit (LEO)
status:1
timestamp:2026-06-15T08:56:48+00:00
nowjuliandate:2461207.6185831
nowepochdate:26167.1185763889
TLE:
ONEWEB-0200
1 48244U 21031AL  26166.37277359 -.00000182  00000+0 -52461-3 0  9996
2 48244  87.8972 290.0535 0001994 103.1639 256.9714 13.14502975247997